Regional Weather Roundup
Issued by NWS

Home | Current Version | Previous Version | Text Only | Print | Product List | Glossary On
Versions: 1 2 3 4 5 6 7 8 9 10 11 12 13 14 15 16 17 18 19 20 21 22 23 24 25 26 27 28 29 30 31 32 33 34 35 36 37 38 39 40 41 42 43 44 45 46 47 48 49 50
000
ASUS45 KTFX 081310
RWRMT
MONTANA REGIONAL WEATHER ROUNDUP
NATIONAL WEATHER SERVICE GREAT FALLS MT
600 AM MST MON FEB 08 2016

NOTE: "FAIR" INDICATES FEW OR NO CLOUDS BELOW 12000 FEET WITH NO
SIGNIFICANT WEATHER AND/OR OBSTRUCTIONS TO VISIBILITY.

MTZ001>007-043-081400-
WEST OF THE DIVIDE

CITY           SKY/WX    TMP DP  RH WIND       PRES   REMARKS
KALISPELL      CLOUDY    31  27  85 CALM      30.62R
MISSOULA       CLOUDY    31  25  78 CALM      30.65R
BUTTE          CLOUDY    24  19  81 CALM      30.56R
MULLAN PASS    CLOUDY    32  25  75 SW5       30.56R
ANACONDA         N/A     30  21  69 CALM      30.58R
DEER LODGE       N/A     30  27  86 SE3       30.59R
HAMILTON         N/A     32  27  80 CALM      30.62R
LIBBY            N/A     30  27  86 CALM      30.67R
PLAINS           N/A     29  24  81 CALM      30.60S
$$

MTZ008-052>055-081400-
SOUTHWEST MONTANA

CITY           SKY/WX    TMP DP  RH WIND       PRES   REMARKS
BOZEMAN        CLOUDY    27  22  81 VRB5      30.54S
DILLON         CLOUDY    20  14  77 SE5       30.56R
ENNIS          CLEAR     25  19  80 CALM      30.62R
TWIN BRIDGES     N/A     20  11  68 SE7       30.48S WCI  11
$$

MTZ009-010-012-014-046-048-049-054-081400-
EAST SLOPES AND CENTRAL MONTANA

CITY           SKY/WX    TMP DP  RH WIND       PRES   REMARKS
CUT BANK       MOCLDY    39  23  52 W25G31    30.37R WCI  28
GREAT FALLS    CLEAR     34  22  61 SW15      30.42R WCI  24
MALMSTROM AFB  CLEAR     33  24  69 SW15      30.43R WCI  23
HELENA         CLOUDY    28  20  71 SW3       30.52R
CHOTEAU          N/A     43  25  49 W14G22    30.41R
CONRAD           N/A     39  28  65 CALM      30.36R
$$

MTZ011-013-016-021-045-047-050-051-081400-
NORTH CENTRAL MONTANA

CITY           SKY/WX    TMP DP  RH WIND       PRES   REMARKS
HAVRE          CLOUDY    20  15  81 SW8       30.41R WCI  10
LEWISTOWN      CLOUDY    28  18  66 W9        30.40R WCI  19
N BAR RANCH      N/A     36  23  60 NW14      30.38S WCI  27
CHINOOK          N/A     16  12  86 CALM      30.42F
$$

MTZ017>020-022>027-061-062-081400-
NORTHEAST MONTANA

CITY           SKY/WX    TMP DP  RH WIND       PRES   REMARKS
GLASGOW        CLOUDY    21  15  78 W6        30.40S WCI  13
JORDAN           N/A     23  17  78 W6        30.41R WCI  16
SIDNEY         CLOUDY    25  14  63 NW12      30.38S WCI  14
WOLF POINT     CLOUDY    23  17  78 SW6       30.42R WCI  16
PLENTYWOOD       N/A     19  14  79 NW7       30.36R WCI  10
POPLAR           N/A     21  16  79 W9        30.42R WCI  11
SCOBEY           N/A     20   7  57 CALM      30.33R
$$

MTZ028>42-056>058-081400-
SOUTHCENTRAL AND SOUTHEAST MONTANA

CITY           SKY/WX    TMP DP  RH WIND       PRES   REMARKS
BAKER          CLOUDY    19  13  77 W5        30.36S
BILLINGS       CLOUDY    31  14  49 SW15      30.42R WCI  20
LIVINGSTON     CLOUDY    41  23  48 W20G26    30.48R
MILES CITY     CLOUDY    22  15  75 W10       30.41S WCI  11
EKALAKA          N/A     20  10  65 W3        30.29R
FORSYTH          N/A     25  12  58 CALM      30.43S
LAUREL           N/A     26  11  53 SW2       30.37R
ROUNDUP          N/A     24  10  55 CALM      30.28S
$$

REGIONAL REPORTS...DAKOTAS

CITY           SKY/WX    TMP DP  RH WIND       PRES   REMARKS
WILLISTON      CLOUDY    23  16  74 NW12      30.36R WCI  12
MINOT          CLEAR     24  14  65 W22       30.25R WCI   9
DICKINSON      CLEAR     18  13  80 NW15      30.29R WCI   4
BEACH            N/A     19  16  86 W13       30.38S WCI   7
CROSBY           N/A     21  19  93 NW14      30.36R WCI   8
TIOGA            N/A     18  18 100 NW13      30.36R WCI   4
WATFORD CITY     N/A     19  16  86 NW10      30.35S WCI   8
BISMARCK       CLEAR     26  17  68 NW16G24   30.27R WCI  14
GRAND FORKS    FLURRIES  13   8  81 N16       30.15S WCI  -3
FARGO          HAZE      13   8  81 N28G33    30.13S VSB 3/4 WCI  -8
BUFFALO SD       N/A     22  13  68 W9        30.28R WCI  12
RAPID CITY     CLOUDY    28   8  43 NW25G33   30.30S WCI  13
$$

REGIONAL REPORTS...WYOMING/IDAHO/WASHINGTON

CITY           SKY/WX    TMP DP  RH WIND       PRES   REMARKS
GILLETTE       CLOUDY    23   9  55 W13       30.39R WCI  11
SHERIDAN       CLOUDY    30  12  47 CALM      30.38S
BUFFALO WY     CLOUDY    26  12  55 S5        30.39R
CODY           CLOUDY    25  14  63 E5        30.40S
YELLOWSTONE LA   N/A      9   5  84 CALM      30.59S
IDAHO FALLS    FOG       22  21  96 MISG      30.68S VSB 1/2
SALMON         CLOUDY    21  18  86 CALM      30.71R
BOISE          CLEAR     32  27  81 SE8       30.67R WCI  25
SPOKANE        MOCLDY    31  28  89 NE5       30.60S
$$

REGIONAL REPORTS...ALBERTA

CITY           SKY/WX    TMP DP  RH WIND       PRES   REMARKS
EDMONTON       MOCLDY    28  18  64 SW10      30.25F WCI  19
CALGARY        PTCLDY    46  23  39 W21G28    30.27F
LETHBRIDGE     MOCLDY    41  27  56 W18G25    30.33S
MEDICINE HAT   PTCLDY    23  18  80 SW5       30.34F
WATERTON GATE    N/A     37  23  56 SW28G40     N/A  WCI  25
MILK RIVER       N/A     34  25  69 NW9         N/A  WCI  26
ONEFOUR          N/A     21  14  73 SE1         N/A
$$

REGIONAL REPORTS...SASKATCHEWAN

CITY           SKY/WX    TMP DP  RH WIND       PRES   REMARKS
SWIFT CURRENT  PTCLDY    21  14  73 W9        30.32F WCI  11
REGINA         MOCLDY    16  14  93 NW9       30.35R WCI   4
SASKATOON      CLOUDY    14  12  92 W7        30.37F WCI   4
CYPRESS HILLS    N/A     27   7  43 SW5         N/A
VAL MARIE        N/A     18  14  86 E1          N/A
ROCKGLEN         N/A     23  14  68 NW9         N/A  WCI  13
$$




USA.gov is the U.S. government's official web portal to all federal, state and local government web resources and services.